DMSP 5D-2 F13 DEB, 40609

Orbit data source: Space-Track

DMSP 5D-2 F13 DEB, 40609 is space debris in SSO originally from a launch on Fri, 24 Mar 1995 UTC launched from the Air Force Western Test Range (AFWTR). Debris objects in space refer to the collection of defunct objects orbiting the Earth. Examples of debris include non-operational satellites, rocket bodies, and fragments generated from explosions, collisions, or faulty payload assembly.

Loading next visibility...
Identifier
40609, 1995-015FG
Orbit
SSO
Country
Flag of USUS
Related business
Manufacturer
Unknown
Mission
Spacecraft
Bus & Motor
Unknown
Mass
Unknown
Launch date (UTC)
1995-03-24 (31 years ago)
Launch vehicle
Unknown
Launch site
Air Force Western Test Range (AFWTR)
Object type
Payload
Rocket body
Debris
Shape & HBR
Unknown shape, 0.1 m
Radar Cross Section
Medium (>0.1 m² and <1 m²)

Expand to show TLE details & history
Last TLE update: 1 day ago

TLE from 1 day ago
0 DMSP 5D-2 F13 DEB
1 40609U 95015FG  26162.91284898  .00004713  00000-0  13852-2 0  9991
2 40609  98.6780 206.7599 0003666  67.9928 292.1651 14.44226293579081
Epoch: 2026-06-11T21:54Z
TLE epoch observation values (Epoch: 2026-06-11T21:54:30.151Z)
Latitude
-0.00006°
Longitude
-22.11555°
Altitude
746.533 km
Speed
7.482 km/s
True Right ascension
13h 47m 02s
True Declination
0° 00' 00"
Sunlit
Object was in full shadow at epoch
Visualization orbit readout
Latitude
Unknown
Longitude
Unknown
Altitude
Unknown
Speed
Unknown
Apparent Right ascension
Unknown
Apparent Declination
Unknown
Sunlit
N/A
Visualization observer readout
Local Sidereal Time
14:02:16
Azimuth
Unknown
Elevation
Unknown
Doppler factor
Unknown
Orbital elements
Apogee altitude
744.304 km
Perigee altitude
739.083 km
Semi-major axis
7,119.831 km
Eccentricity
0.00037
Inclination
98.678°
RAAN
206.7599°
Arg. of periapsis
67.9928°
True anomaly
292.12619°
Mean anomaly
292.1651°
Eccentric anomaly
292.14564°
Mean motion
3.61276 °/min
Orbital period
99.65 mins
BSTAR
0.0013852
Loading maneuver chart data...
Computing Atmospheric mass density...

Documentation

Showing up to 5 results
|